Weather History for KSPB - November, 2012

Change the Weather History Date:

Tuesday, November 6, 2012

  Actual Average Record
Temperature  
Mean Temperature 50 °F -  
Max Temperature 56 °F - 64 °F (2006)
Min Temperature 45 °F - 28 °F (2003)
Degree Days  
Heating Degree Days 14    
Month to date heating degree days 56  
Since 1 July heating degree days 582  
Cooling Degree Days 0    
Month to date cooling degree days 0  
Year to date cooling degree days 245  
Moisture  
Dew Point 49 °F    
Average Humidity 92    
Maximum Humidity 100    
Minimum Humidity 83    
Precipitation  
Precipitation 0.02 in - 2.35 in (2006)
Month to date precipitation 0.68  
Year to date precipitation 37.64  
Sea Level Pressure  
Sea Level Pressure 30.07 in    
Wind  
Wind Speed 2 mph (South)    
Max Wind Speed 9 mph    
Max Gust Speed 12 mph    
Visibility 6 miles    
Events Fog , Rain    
T = Trace of Precipitation, MM = Missing Value Source: NWS Daily Summary

Daily Weather History Graph

Daily Weather History Graph

Search for Another Location

Airport or City:

Trip Planner

Search our weather history database for the weather conditions in past years. The results will help you decide how hot, cold, wet, or windy it might be!

Date:

Astronomy

Nov. 06, 2012 Rise Set
Actual Time 6:59 AM PST 4:50 PM PST
Civil Twilight 6:27 AM PST 5:21 PM PST
Nautical Twilight 5:52 AM PST 5:57 PM PST
Astronomical Twilight 5:17 AM PST 6:31 PM PST
Moon 11:39 PM PST (11/6) 12:51 PM PST (11/6)
Length of Visible Light 10h 53m
Length of Day
9h 50m
Waning Gibbous, 52% of the Moon is Illuminated
Nov 6
Waning Gibbous
Nov 6
Last Quarter
Nov 13
New
Nov 20
First Quarter
Nov 28
Full

Hourly Weather History & Observations

Time (PST) Temp. Dew Point Humidity Pressure Visibility Wind Dir Wind Speed Gust Speed Precip Events Conditions
12:53 AM 48.0 °F 46.0 °F 93% 30.12 in 9.0 mi Calm Calm - N/A   Scattered Clouds
1:21 AM 46.4 °F 46.4 °F 100% 30.12 in 7.0 mi Calm Calm - N/A   Mostly Cloudy
1:26 AM 46.4 °F 46.4 °F 100% 30.12 in 2.5 mi Calm Calm - N/A   Scattered Clouds
1:31 AM 46.4 °F 44.6 °F 93% 30.12 in 1.0 mi Calm Calm - N/A   Mist
1:39 AM 46.4 °F 44.6 °F 93% 30.12 in 2.0 mi Calm Calm - N/A   Scattered Clouds
1:53 AM 46.9 °F 46.0 °F 97% 30.12 in 1.0 mi Calm Calm - N/A   Mist
2:00 AM 46.4 °F 44.6 °F 93% 30.11 in 0.5 mi Calm Calm - N/A Fog Fog
2:19 AM 46.4 °F 44.6 °F 93% 30.11 in 1.2 mi Calm Calm - N/A   Partly Cloudy
2:39 AM 46.4 °F 44.6 °F 93% 30.11 in 0.8 mi Calm Calm - N/A   Mist
2:53 AM 46.0 °F 45.0 °F 96% 30.10 in 1.0 mi Calm Calm - N/A   Mostly Cloudy
2:56 AM 46.4 °F 44.6 °F 93% 30.10 in 2.0 mi Calm Calm - N/A   Mostly Cloudy
3:03 AM 46.4 °F 46.4 °F 100% 30.10 in 9.0 mi Calm Calm - N/A   Overcast
3:53 AM 48.9 °F 48.0 °F 97% 30.09 in 10.0 mi Calm Calm - N/A   Overcast
4:53 AM 48.9 °F 46.9 °F 93% 30.08 in 9.0 mi Calm Calm - N/A   Overcast
5:46 AM 50.0 °F 48.2 °F 94% 30.07 in 3.0 mi Calm Calm - N/A   Overcast
5:53 AM 50.0 °F 48.9 °F 96% 30.07 in 3.0 mi Calm Calm - N/A   Overcast
6:17 AM 50.0 °F 48.2 °F 94% 30.06 in 2.5 mi Calm Calm - N/A   Overcast
6:35 AM 50.0 °F 48.2 °F 94% 30.06 in 1.8 mi Calm Calm - N/A   Overcast
6:46 AM 50.0 °F 48.2 °F 94% 30.06 in 2.0 mi Calm Calm - N/A   Overcast
6:53 AM 50.0 °F 48.9 °F 96% 30.06 in 2.0 mi Calm Calm - N/A   Overcast
7:06 AM 50.0 °F 48.2 °F 94% 30.06 in 1.5 mi Calm Calm - 0.01 in   Overcast
7:17 AM 50.0 °F 48.2 °F 94% 30.06 in 1.8 mi Calm Calm - 0.01 in   Overcast
7:27 AM 50.0 °F 48.2 °F 94% 30.06 in 2.0 mi Calm Calm - 0.01 in   Overcast
7:53 AM 51.1 °F 50.0 °F 96% 30.07 in 3.0 mi Calm Calm - 0.01 in   Overcast
8:25 AM 51.8 °F 50.0 °F 94% 30.07 in 3.0 mi Calm Calm - N/A   Overcast
8:45 AM 51.8 °F 51.8 °F 100% 30.06 in 2.5 mi Calm Calm - N/A   Overcast
8:53 AM 52.0 °F 51.1 °F 97% 30.06 in 2.5 mi Calm Calm - N/A   Overcast
9:09 AM 51.8 °F 51.8 °F 100% 30.06 in 3.0 mi Calm Calm - N/A   Overcast
9:53 AM 54.0 °F 52.0 °F 93% 30.06 in 9.0 mi SSE 5.8 mph - N/A   Overcast
10:53 AM 54.0 °F 52.0 °F 93% 30.06 in 10.0 mi SSE 8.1 mph - N/A   Overcast
11:37 AM 55.4 °F 51.8 °F 88% 30.06 in 10.0 mi South 5.8 mph - N/A   Overcast
11:53 AM 55.0 °F 51.1 °F 86% 30.05 in 10.0 mi South 5.8 mph - N/A   Overcast
12:53 PM 55.9 °F 51.1 °F 84% 30.04 in 10.0 mi South 6.9 mph - N/A   Overcast
1:53 PM 55.9 °F 51.1 °F 84% 30.04 in 10.0 mi SSE 3.5 mph - N/A   Overcast
2:53 PM 55.9 °F 52.0 °F 87% 30.04 in 10.0 mi Calm Calm - N/A   Overcast
3:45 PM 55.4 °F 51.8 °F 88% 30.04 in 10.0 mi SE 4.6 mph - N/A   Overcast
3:53 PM 55.9 °F 52.0 °F 87% 30.04 in 10.0 mi Calm Calm - N/A   Overcast
4:03 PM 55.4 °F 51.8 °F 88% 30.05 in 10.0 mi Calm Calm - N/A   Overcast
4:53 PM 55.0 °F 52.0 °F 89% 30.04 in 6.0 mi North 4.6 mph - N/A   Overcast
5:53 PM 54.0 °F 53.1 °F 97% 30.04 in 5.0 mi Calm Calm - 0.00 in Rain Light Rain
6:00 PM 53.6 °F 53.6 °F 100% 30.04 in 6.0 mi Calm Calm - 0.00 in   Overcast
6:53 PM 54.0 °F 53.1 °F 97% 30.05 in 7.0 mi Calm Calm - 0.01 in   Overcast
7:53 PM 54.0 °F 52.0 °F 93% 30.05 in 6.0 mi Calm Calm - 0.01 in   Overcast
8:53 PM 54.0 °F 48.9 °F 83% 30.06 in 10.0 mi Calm Calm - N/A   Overcast
9:53 PM 53.1 °F 48.0 °F 83% 30.08 in 10.0 mi WNW 4.6 mph - N/A   Overcast
10:53 PM 51.1 °F 46.0 °F 83% 30.10 in 10.0 mi NW 4.6 mph - N/A   Clear
11:53 PM 51.1 °F 45.0 °F 80% 30.11 in 10.0 mi Calm Calm - N/A   Partly Cloudy